Regional Weather Roundup
Issued by NWS

Home | Current Version | Previous Version | Text Only | Print | Product List | Glossary On
Versions: 1 2 3 4 5 6 7 8 9 10 11 12 13 14 15 16 17 18 19 20 21 22 23 24 25 26 27 28 29 30 31 32 33 34 35 36 37 38 39 40 41 42 43 44 45 46 47 48 49 50
000
ASUS43 KLMK 070810
RWRKY
KENTUCKY REGIONAL WEATHER ROUNDUP
NATIONAL WEATHER SERVICE LOUISVILLE KY
400 AM EDT THU MAY 07 2015

NOTE "FAIR" INDICATES FEW OR NO CLOUDS BELOW 12,000 FEET
WITH NO SIGNIFICANT WEATHER AND/OR OBSTRUCTIONS TO VISIBILITY.

KYZ001>023-026-027-061>063-070>075-070900-
WESTERN AND SOUTH CENTRAL KENTUCKY

CITY           SKY/WX    TMP DP  RH WIND       PRES   REMARKS
PADUCAH        CLEAR     58  53  84 CALM      30.05S
HENDERSON      CLEAR     59  54  82 CALM      30.06S
OWENSBORO      CLEAR     63  60  90 CALM      30.08S
HOPKINSVILLE   PTCLDY    63  59  86 E2        30.07F
BOWLING GREEN  CLEAR     63  58  83 CALM      30.09S
GLASGOW        CLEAR     59  59 100 CALM      30.09S
$$

KYZ024-025-028>034-038-045-046-053-070900-
NORTH CENTRAL KENTUCKY

CITY           SKY/WX    TMP DP  RH WIND       PRES   REMARKS
LOUISVILLE/SDF PTCLDY    69  59  70 CALM      30.08S
LOUISVILLE/LOU PTCLDY    63  57  81 CALM      30.09S
FORT KNOX      CLEAR     60  56  87 CALM      30.07S
$$

KYZ035>037-039>044-047>052-055>060-089>105-070900-
NORTHEAST KENTUCKY

CITY           SKY/WX    TMP DP  RH WIND       PRES   REMARKS
LEXINGTON      PTCLDY    63  56  78 CALM      30.09F
COVINGTON      CLEAR     67  54  63 CALM      30.10S
FRANKFORT      CLEAR     61  56  83 CALM      30.08F
$$

KYZ054-064>069-076>088-106>120-070900-
SOUTHEAST KENTUCKY

CITY           SKY/WX    TMP DP  RH WIND       PRES   REMARKS
JACKSON        CLEAR     67  54  63 S3        30.12S
LONDON         CLEAR     60  54  80 CALM      30.11S
SOMERSET       CLOUDY    57  55  94 CALM      30.11F
MIDDLESBORO    PTCLDY    56  56  98 CALM      30.14S
MONTICELLO     SUNNY     58  57  96 CALM      30.13S
$$



USA.gov is the U.S. government's official web portal to all federal, state and local government web resources and services.